Probability
12 11 10 8 8 9 10 9 7 5 4 3 2 3 6 7 6 5 5 4 1 0 0 0 0 0 0 0 0 0 0 0 1 1 1 0 1 1
15 13 11 9 8 9 10 10 9 6 5 3 2 1 3 4 5 6 6 3 1 0 0 0 0 0 0 0 0 0 0 0 0 0 0 0 0 1
16 14 12 10 9 9 9 10 9 6 4 3 2 1 1 2 4 5 5 3 1 0 0 0 0 0 0 0 0 0 0 0 0 0 0 0 0 0
17 16 14 13 11 10 9 8 7 5 4 3 2 2 2 2 3 3 3 2 1 0 0 0 0 0 0 0 0 0 0 0 0 0 0 0 0 0
20 19 17 15 13 11 9 8 6 5 5 3 3 3 3 3 2 2 2 3 2 1 0 0 0 0 0 0 0 0 0 0 0 0 0 0 0 0
19 18 17 14 12 10 10 9 8 7 6 5 4 4 4 3 2 1 2 3 3 1 0 0 0 0 0 0 0 0 0 0 0 0 0 0 0 0
15 14 13 10 9 8 8 9 10 10 9 8 7 6 5 4 3 1 1 2 3 2 1 0 0 0 0 0 0 0 0 0 0 0 0 0 0 0
12 10 7 6 7 7 7 7 7 9 9 10 9 8 6 6 4 1 0 1 3 3 2 1 0 0 0 0 0 0 0 0 0 0 0 0 0 0
11 9 7 5 6 8 8 6 6 5 5 8 10 9 8 7 6 3 1 2 3 3 3 2 1 0 0 0 0 0 0 0 0 0 0 0 0 0
10 10 9 8 7 8 9 9 9 7 3 4 7 8 7 7 7 5 4 4 4 4 3 3 2 1 0 0 0 0 0 0 0 0 0 0 0 0
10 10 10 8 6 6 9 12 14 11 5 2 2 3 3 4 5 5 6 6 5 4 3 3 3 2 1 0 0 0 0 0 0 0 0 0 0 0
9 9 8 7 5 4 7 12 14 13 9 4 1 1 1 2 4 5 6 6 5 4 3 3 3 3 2 1 0 0 0 0 0 0 0 0 0 0
7 7 6 4 2 2 4 7 9 10 9 6 3 2 2 3 5 6 7 6 5 4 3 3 3 3 2 1 0 0 0 0 0 0 0 0 0 0
6 6 5 2 0 0 1 2 3 4 7 7 3 2 3 4 5 7 7 6 4 4 3 3 3 3 2 1 0 0 0 0 0 0 0 0 0 0
5 5 3 1 0 0 0 0 0 2 5 6 4 2 3 4 5 7 7 6 5 4 3 3 3 3 2 1 0 0 0 0 0 0 0 0 0 0
4 3 1 1 0 0 0 1 1 2 5 6 5 3 3 4 5 6 6 6 6 5 4 3 3 3 2 1 0 0 0 0 0 0 0 0 0 0
4 3 3 3 1 1 1 2 2 3 5 6 6 5 4 4 4 5 6 6 6 6 5 4 3 2 1 0 0 0 0 0 0 0 0 0 0 0
6 6 6 5 4 3 3 3 3 4 5 6 7 7 6 4 4 4 5 6 6 5 4 3 2 1 0 0 0 0 0 0 0 0 0 0 0 0
6 7 7 6 6 5 4 4 3 4 6 7 7 7 6 5 4 4 4 5 6 4 3 3 1 0 0 0 0 0 0 0 0 0 0 0 0 0
6 7 7 6 7 8 7 6 5 6 6 7 7 7 6 6 5 4 3 4 5 4 3 3 1 1 1 0 0 0 0 0 0 0 0 0 0 0
6 8 8 6 7 9 9 9 8 8 7 8 8 7 7 7 6 4 3 3 4 3 3 3 2 1 0 0 0 0 0 0 0 0 0 0 0 0
6 8 8 7 8 9 10 11 11 9 8 7 7 6 6 7 6 4 3 3 3 3 3 3 2 1 0 0 0 0 0 0 0 0 0 0 0 0
6 7 8 7 8 9 11 12 11 10 9 7 6 5 5 5 4 4 3 3 3 3 3 3 2 1 0 0 0 0 0 0 0 0 0 0 0 0
Wind_Speed
2 2 2 1 1 1 0 0 1 1 1 1 1 1 2 3 3 3 3 5 6 5 5 5 5 5 5 5 5 4 4 3 3 3 3 2 2 2
1 1 1 1 1 1 1 1 0 1 1 1 1 1 1 2 3 2 3 6 6 6 6 6 6 6 6 6 5 5 5 5 5 4 3 3 2 2
1 0 0 1 1 1 1 0 0 1 1 0 1 1 2 2 2 1 2 3 3 5 6 7 7 7 7 6 6 5 5 5 4 4 4 4 3 3
1 1 1 1 1 1 1 1 1 1 1 1 1 1 2 2 1 0 2 3 3 5 7 8 8 7 7 6 6 5 5 4 4 4 4 4 3 4
1 1 1 2 2 1 1 1 1 1 2 2 1 1 1 1 1 0 1 1 3 5 7 7 7 7 7 6 6 5 4 4 4 4 4 4 3 3
1 2 2 2 2 2 1 1 1 1 1 1 2 2 1 1 1 1 1 1 1 3 4 5 6 7 6 6 6 5 4 4 4 4 4 3 3 3
2 2 3 4 4 3 2 2 1 1 1 1 1 1 1 1 1 1 1 1 1 2 3 3 4 3 4 4 5 5 5 4 4 4 3 3 3 3
1 1 2 3 3 3 3 3 2 1 0 0 1 1 2 1 1 1 1 1 1 1 2 2 3 3 3 3 5 6 5 5 5 4 4 3 3 3
1 0 0 2 2 1 2 2 2 2 0 1 0 0 1 2 2 2 1 1 1 2 2 1 2 3 3 4 7 7 6 6 5 5 4 3 3 3
1 1 1 2 2 1 0 1 2 1 1 1 0 0 1 1 2 2 2 1 1 1 2 2 2 2 2 3 7 8 7 6 6 5 4 4 3 3
1 1 1 3 2 1 1 1 1 1 2 2 2 2 2 2 2 1 1 1 1 2 1 1 1 2 2 3 4 7 7 6 5 5 5 4 4 3
2 2 2 3 2 0 1 1 1 1 1 2 2 3 3 3 3 2 1 1 1 1 1 1 1 1 1 2 3 4 4 5 5 5 5 5 4 2
2 3 3 4 3 1 1 1 2 2 2 2 3 3 2 2 2 2 1 1 1 1 1 1 1 1 1 1 2 3 4 3 3 3 5 6 6 4
2 1 3 5 4 3 2 2 2 3 3 3 2 2 2 2 2 2 2 1 2 2 2 2 1 1 1 1 1 2 3 3 3 3 3 5 6 6
2 1 4 6 4 4 6 5 3 3 3 3 3 3 3 3 2 2 2 2 2 2 2 2 1 1 1 2 1 2 2 2 3 3 3 4 3 3
3 3 5 6 5 5 4 5 4 4 4 3 2 2 2 2 3 2 2 2 2 1 2 3 2 2 2 2 2 2 2 2 3 3 3 3 3 3
2 3 3 4 4 5 4 5 5 5 5 4 3 2 2 3 3 2 2 2 2 2 2 2 2 2 2 1 1 2 2 2 2 3 2 2 2 3
3 4 4 5 5 5 5 5 5 5 4 4 3 3 3 3 2 2 3 3 3 2 2 2 2 1 1 1 2 2 2 2 2 2 2 2 2 2
4 5 5 5 5 5 4 4 4 5 4 4 3 3 3 3 3 3 3 3 3 2 2 2 2 3 3 3 3 3 2 2 2 2 2 2 2 3
5 5 5 5 4 4 4 4 3 3 3 3 3 3 3 3 3 3 3 3 3 3 3 3 3 3 4 3 2 2 4 3 2 2 2 1 1 2
5 5 4 4 4 3 3 3 3 2 2 2 3 3 3 3 3 3 3 4 3 3 4 4 4 5 3 2 2 2 3 5 4 3 2 2 2 2
4 4 3 3 3 3 2 3 3 3 3 3 3 3 3 3 4 4 3 3 4 4 3 2 3 3 2 3 3 3 3 3 3 4 3 3 2 3
4 3 2 2 2 2 3 3 3 3 3 3 3 3 3 3 3 3 4 4 3 3 2 2 2 2 3 3 3 3 3 4 3 3 2 4 6 4
Wind_Direction
274 275 272 274 297 317 327 249 225 252 238 149 81 69 82 91 108 118 116 122 130 131 133 133 130 125 120 116 118 117 113 108 101 89 87 111 134 157
256 300 308 326 334 321 292 290 230 211 231 116 102 87 69 80 99 104 119 129 140 140 138 135 128 120 115 112 109 110 110 107 102 96 90 89 108 127
293 332 347 345 337 321 329 340 325 138 164 111 105 99 86 78 77 89 124 119 118 132 136 132 129 126 123 120 116 112 110 109 108 106 100 93 109 126
1 24 2 351 10 350 358 9 28 109 142 141 112 106 104 108 102 89 105 116 117 121 131 131 129 127 125 122 118 115 115 117 119 114 107 99 102 125
39 43 30 26 22 5 9 14 26 80 117 134 144 117 106 94 95 66 96 117 137 136 135 134 130 128 127 125 120 115 121 130 128 119 112 104 100 107
68 57 47 44 27 357 26 40 44 58 112 142 149 139 129 123 124 154 121 120 126 124 125 134 141 140 137 137 135 133 131 135 134 132 127 121 113 107
83 87 83 79 68 48 48 45 48 74 128 156 152 149 141 145 157 198 150 143 128 126 140 151 149 151 154 154 148 145 143 140 138 140 137 137 136 129
84 110 141 120 106 98 89 77 66 82 124 165 164 163 149 147 161 202 180 163 164 165 156 171 156 157 158 150 153 151 150 149 148 145 144 151 161 161
174 216 257 102 102 101 145 157 121 99 90 261 254 160 161 174 191 216 212 202 180 179 164 173 151 151 156 156 161 163 163 160 156 155 159 164 171 177
199 178 118 101 57 32 222 154 152 152 189 156 86 254 152 186 199 211 205 192 172 152 139 161 162 159 145 152 170 168 168 168 165 166 172 178 187 197
197 152 137 120 98 18 273 186 176 182 155 134 146 195 193 206 204 194 196 179 201 184 161 161 163 155 161 163 166 174 177 178 181 186 188 190 197 197
186 156 131 141 158 147 241 238 232 251 207 178 196 215 205 197 205 197 204 208 194 181 164 169 177 159 178 166 158 174 188 195 201 206 204 208 204 204
217 186 163 157 155 182 251 249 229 254 249 230 210 199 191 177 178 184 193 194 206 207 174 171 193 205 169 164 166 177 181 181 190 206 210 213 210 204
269 193 158 177 194 217 233 245 271 272 247 235 215 198 189 187 189 186 184 186 192 195 193 170 176 200 187 181 188 180 185 179 176 187 192 202 215 222
288 187 185 196 214 230 230 230 241 246 246 240 227 204 189 184 180 174 178 188 208 206 170 165 181 200 196 203 195 180 184 184 179 184 183 186 199 200
244 216 201 211 232 242 226 222 223 231 235 236 227 207 185 176 182 185 189 190 192 202 194 186 199 204 225 219 190 191 179 181 189 188 187 190 187 186
227 225 217 213 219 223 221 218 218 220 227 230 225 211 197 193 196 191 193 208 209 197 197 206 206 198 224 233 216 199 189 189 186 185 181 189 192 187
209 230 232 230 227 224 222 219 217 221 221 215 212 209 208 207 205 197 190 203 213 211 199 196 188 192 243 279 232 216 200 199 193 186 174 181 204 193
213 232 236 236 240 237 228 227 223 216 210 213 214 211 211 211 205 204 202 206 219 213 200 194 193 196 221 236 237 219 202 198 180 185 197 198 206 191
230 238 239 239 240 241 236 234 230 217 207 207 212 217 215 214 211 209 207 213 221 219 209 203 202 207 220 228 219 216 201 189 189 204 219 206 183 158
234 239 242 241 241 236 232 224 221 218 219 215 213 216 215 215 215 213 211 211 218 227 223 211 212 210 210 208 220 205 197 203 196 192 197 195 200 192
246 246 251 259 251 237 228 225 220 216 215 218 218 217 220 219 217 218 222 222 219 224 233 226 204 205 217 222 227 217 204 191 201 207 207 197 187 199
244 248 243 248 256 242 229 223 224 223 216 219 219 221 226 225 226 220 220 226 226 227 236 227 209 208 218 221 232 232 208 197 187 181 220 233 217 211